Change the Weather History Date:

Friday, May 2, 2014

  Actual Average Record
Temperature  
Mean Temperature 48 °F -  
Max Temperature 62 °F 63 °F 78 °F (2012)
Min Temperature 35 °F 38 °F 23 °F (2002)
Degree Days  
Heating Degree Days 16    
Moisture  
Dew Point 37 °F    
Average Humidity 66    
Maximum Humidity 93    
Minimum Humidity 30    
Precipitation  
Precipitation 0.01 in - - ()
Sea Level Pressure  
Sea Level Pressure 29.72 in    
Wind  
Wind Speed 11 mph (WNW)    
Max Wind Speed 31 mph    
Max Gust Speed 41 mph    
Visibility 10 miles    
Events Rain    
Averages and records for this station are not official NWS values.
T = Trace of Precipitation, MM = Missing Value Source: NWS Daily Summary

Daily Weather History Graph

Daily Weather History Graph

Search for Another Location

Airport or City:

Trip Planner

Search our weather history database for the weather conditions in past years. The results will help you decide how hot, cold, wet, or windy it might be!

Date:

Astronomy

May. 02, 2014 Rise Set
Actual Time 6:11 AM CDT 8:31 PM CDT
Civil Twilight 5:38 AM CDT 9:04 PM CDT
Nautical Twilight 4:58 AM CDT 9:45 PM CDT
Astronomical Twilight 4:12 AM CDT 10:31 PM CDT
Moon 8:46 AM CDT (5/2) 11:57 PM CDT (5/2)
Length of Visible Light 15h 25m
Length of Day
14h 20m
Waxing Crescent, 12% of the Moon is Illuminated
May 2
Waxing Crescent
May 6
First Quarter
May 14
Full
May 21
Last Quarter
May 28
New

Hourly Weather History & Observations

Time (CDT) Temp. Windchill Dew Point Humidity Pressure Visibility Wind Dir Wind Speed Gust Speed Precip Events Conditions
12:13 AM 35.6 °F 29.9 °F 33.8 °F 93% 29.86 in 10.0 mi WSW 6.9 mph - N/A   Clear
12:34 AM 37.4 °F 32.8 °F 35.6 °F 93% 29.85 in 10.0 mi SW 5.8 mph - N/A   Clear
12:54 AM 37.4 °F 32.8 °F 35.6 °F 93% 29.85 in 10.0 mi SW 5.8 mph - N/A   Clear
1:13 AM 37.4 °F 33.8 °F 35.6 °F 93% 29.84 in 10.0 mi SW 4.6 mph - N/A   Clear
1:34 AM 37.4 °F 33.8 °F 35.6 °F 93% 29.83 in 10.0 mi SW 4.6 mph - N/A   Clear
1:54 AM 37.4 °F 32.8 °F 35.6 °F 93% 29.82 in 10.0 mi SSW 5.8 mph - N/A   Clear
2:14 AM 37.4 °F 33.8 °F 33.8 °F 87% 29.81 in 10.0 mi SW 4.6 mph - N/A   Clear
2:33 AM 37.4 °F 33.8 °F 33.8 °F 87% 29.81 in 10.0 mi SW 4.6 mph - N/A   Scattered Clouds
2:54 AM 35.6 °F 30.7 °F 33.8 °F 93% 29.79 in 10.0 mi SSW 5.8 mph - N/A   Scattered Clouds
3:14 AM 37.4 °F 33.8 °F 33.8 °F 87% 29.79 in 10.0 mi SSW 4.6 mph - N/A   Scattered Clouds
3:33 AM 37.4 °F 33.8 °F 33.8 °F 87% 29.79 in 10.0 mi SW 4.6 mph - N/A   Mostly Cloudy
3:53 AM 37.4 °F 33.8 °F 33.8 °F 87% 29.78 in 10.0 mi SSW 4.6 mph - N/A   Mostly Cloudy
4:15 AM 39.2 °F 37.0 °F 33.8 °F 81% 29.78 in 10.0 mi SW 3.5 mph - N/A   Mostly Cloudy
4:35 AM 39.2 °F 35.9 °F 33.8 °F 81% 29.76 in 10.0 mi SSW 4.6 mph - N/A   Mostly Cloudy
4:54 AM 39.2 °F 34.2 °F 33.8 °F 81% 29.75 in 10.0 mi SSW 6.9 mph - N/A   Scattered Clouds
5:14 AM 39.2 °F 34.2 °F 33.8 °F 81% 29.73 in 10.0 mi SSW 6.9 mph - N/A   Scattered Clouds
5:33 AM 39.2 °F 33.6 °F 33.8 °F 81% 29.71 in 10.0 mi SSW 8.1 mph - N/A   Scattered Clouds
5:53 AM 41.0 °F 36.4 °F 35.6 °F 81% 29.70 in 10.0 mi SSW 6.9 mph - N/A   Mostly Cloudy
6:14 AM 41.0 °F 38.0 °F 35.6 °F 81% 29.70 in 10.0 mi SSW 4.6 mph - N/A   Mostly Cloudy
6:33 AM 41.0 °F 37.1 °F 35.6 °F 81% 29.69 in 10.0 mi SSW 5.8 mph - N/A   Mostly Cloudy
6:54 AM 42.8 °F 37.5 °F 35.6 °F 76% 29.68 in 10.0 mi SSW 9.2 mph - N/A   Overcast
7:13 AM 44.6 °F 40.2 °F 35.6 °F 71% 29.67 in 10.0 mi SSW 8.1 mph - N/A   Overcast
7:34 AM 44.6 °F 39.7 °F 35.6 °F 71% 29.65 in 10.0 mi South 9.2 mph - N/A   Light Drizzle
7:53 AM 44.6 °F 39.7 °F 35.6 °F 71% 29.65 in 10.0 mi SSW 9.2 mph - N/A   Mostly Cloudy
8:13 AM 44.6 °F 39.7 °F 35.6 °F 71% 29.65 in 10.0 mi SW 9.2 mph - N/A Rain Light Rain
8:34 AM 48.2 °F - 37.4 °F 66% 29.64 in 10.0 mi WSW 12.7 mph - N/A   Scattered Clouds
8:54 AM 51.8 °F - 37.4 °F 58% 29.63 in 10.0 mi West 12.7 mph - N/A   Scattered Clouds
9:14 AM 53.6 °F - 41.0 °F 62% 29.63 in 10.0 mi NW 20.7 mph 26.5 mph 0.01 in   Clear
9:33 AM 53.6 °F - 42.8 °F 67% 29.63 in 10.0 mi WNW 24.2 mph 31.1 mph 0.01 in   Clear
9:53 AM 55.4 °F - 44.6 °F 67% 29.63 in 10.0 mi NW 21.9 mph 31.1 mph 0.01 in   Scattered Clouds
10:14 AM 53.6 °F - 42.8 °F 67% 29.64 in 10.0 mi NW 23.0 mph 33.4 mph N/A   Overcast
10:35 AM 51.8 °F - 42.8 °F 71% 29.65 in 10.0 mi NW 27.6 mph 33.4 mph N/A   Overcast
10:54 AM 51.8 °F - 42.8 °F 71% 29.65 in 10.0 mi NW 23.0 mph 29.9 mph N/A   Overcast
11:13 AM 51.8 °F - 42.8 °F 71% 29.67 in 10.0 mi NW 23.0 mph 29.9 mph N/A   Overcast
11:34 AM 51.8 °F - 41.0 °F 67% 29.68 in 10.0 mi NW 23.0 mph 32.2 mph N/A   Overcast
11:54 AM 51.8 °F - 41.0 °F 67% 29.68 in 10.0 mi NNW 25.3 mph 32.2 mph N/A   Overcast
12:15 PM 51.8 °F - 41.0 °F 67% 29.69 in 10.0 mi NNW 25.3 mph 32.2 mph N/A   Overcast
12:33 PM 55.4 °F - 39.2 °F 54% 29.69 in 10.0 mi NNW 28.8 mph 38.0 mph N/A   Mostly Cloudy
1:15 PM 57.2 °F - 41.0 °F 55% 29.68 in 10.0 mi NNW 25.3 mph 34.5 mph N/A   Scattered Clouds
1:34 PM 57.2 °F - 42.8 °F 59% 29.68 in 10.0 mi NNW 25.3 mph 34.5 mph N/A   Scattered Clouds
1:53 PM 59.0 °F - 39.2 °F 48% 29.68 in 10.0 mi NNW 28.8 mph 36.8 mph N/A   Scattered Clouds
2:14 PM 60.8 °F - 37.4 °F 42% 29.69 in 10.0 mi NNW 31.1 mph 38.0 mph N/A   Scattered Clouds
2:33 PM 60.8 °F - 37.4 °F 42% 29.68 in 10.0 mi NNW 29.9 mph 41.4 mph N/A   Scattered Clouds
2:55 PM 62.6 °F - 35.6 °F 37% 29.68 in 10.0 mi NNW 26.5 mph 39.1 mph N/A   Scattered Clouds
3:14 PM 62.6 °F - 37.4 °F 39% 29.68 in 10.0 mi NW 25.3 mph 32.2 mph N/A   Scattered Clouds
3:33 PM 62.6 °F - 35.6 °F 37% 29.69 in 10.0 mi NNW 25.3 mph 36.8 mph N/A   Scattered Clouds
3:54 PM 62.6 °F - 33.8 °F 34% 29.69 in 10.0 mi NNW 28.8 mph 34.5 mph N/A   Scattered Clouds
4:14 PM 62.6 °F - 33.8 °F 34% 29.69 in 10.0 mi NNW 25.3 mph 33.4 mph N/A   Scattered Clouds
4:34 PM 62.6 °F - 33.8 °F 34% 29.70 in 10.0 mi NNW 19.6 mph 34.5 mph N/A   Scattered Clouds
4:54 PM 62.6 °F - 32.0 °F 32% 29.70 in 10.0 mi NNW 28.8 mph 32.2 mph N/A   Scattered Clouds
5:14 PM 62.6 °F - 33.8 °F 34% 29.70 in 10.0 mi North 20.7 mph 31.1 mph N/A   Scattered Clouds
5:34 PM 62.6 °F - 33.8 °F 34% 29.70 in 10.0 mi NNW 20.7 mph 26.5 mph N/A   Scattered Clouds
5:54 PM 62.6 °F - 30.2 °F 30% 29.71 in 10.0 mi NNW 24.2 mph 27.6 mph N/A   Clear
6:14 PM 62.6 °F - 32.0 °F 32% 29.71 in 10.0 mi NNW 20.7 mph 27.6 mph N/A   Clear
6:34 PM 60.8 °F - 33.8 °F 36% 29.71 in 10.0 mi NNW 17.3 mph 23.0 mph N/A   Clear
6:53 PM 60.8 °F - 33.8 °F 36% 29.71 in 10.0 mi NNW 11.5 mph - N/A   Clear
7:13 PM 57.2 °F - 35.6 °F 44% 29.71 in 10.0 mi NNW 9.2 mph - N/A   Clear
7:33 PM 57.2 °F - 37.4 °F 48% 29.72 in 10.0 mi NNW 5.8 mph - N/A   Scattered Clouds
7:54 PM 57.2 °F - 37.4 °F 48% 29.73 in 10.0 mi NNW 5.8 mph - N/A   Mostly Cloudy
8:14 PM 53.6 °F - 39.2 °F 58% 29.73 in 10.0 mi NW 6.9 mph - N/A   Scattered Clouds
8:34 PM 53.6 °F - 39.2 °F 58% 29.74 in 10.0 mi WNW 5.8 mph - N/A   Mostly Cloudy
8:54 PM 51.8 °F - 39.2 °F 62% 29.74 in 10.0 mi WNW 5.8 mph - N/A   Scattered Clouds
9:13 PM 48.2 °F - 39.2 °F 71% 29.74 in 10.0 mi WNW 5.8 mph - N/A   Clear
9:33 PM 48.2 °F - 39.2 °F 71% 29.75 in 10.0 mi WNW 4.6 mph - N/A   Clear
9:54 PM 46.4 °F 43.5 °F 37.4 °F 71% 29.76 in 10.0 mi WNW 5.8 mph - N/A   Clear
10:15 PM 44.6 °F 40.7 °F 37.4 °F 76% 29.76 in 10.0 mi WNW 6.9 mph - N/A   Clear
10:34 PM 44.6 °F 40.7 °F 37.4 °F 76% 29.76 in 10.0 mi West 6.9 mph - N/A   Clear
10:54 PM 42.8 °F 38.0 °F 37.4 °F 81% 29.77 in 10.0 mi West 8.1 mph - N/A   Clear
11:14 PM 41.0 °F 38.0 °F 35.6 °F 81% 29.77 in 10.0 mi West 4.6 mph - N/A   Clear
11:35 PM 41.0 °F 36.4 °F 35.6 °F 81% 29.77 in 10.0 mi West 6.9 mph - N/A   Clear
11:54 PM 39.2 °F 35.0 °F 35.6 °F 87% 29.77 in 10.0 mi West 5.8 mph - N/A   Clear